INMARSAT 3-F5
1 25153U 98006B   02362.90436344  .00000151  00000-0  10000-3 0  8254
2 25153   0.4478 357.5592 0004446 282.1806 168.1295  1.00277883 17985
HOT BIRD 4
1 25237U 98013A   02353.82621742  .00000111  00000-0  10000-3 0  3222
2 25237   0.0438 307.7455 0004897 256.9385 194.0865  1.00274102 17933
NOAA 15
1 25338U 98030A   02363.87549842  .00000389  00000-0  18697-3 0  9514
2 25338  98.5517  22.3970 0011375 103.2979 256.9470 14.24220773240583
RESURS O1-N4
1 25394U 98043A   02363.90020493  .00000549  00000-0  25891-3 0  4113
2 25394  98.6378  77.7440 0000656 242.2552 117.8558 14.23859360232322
TMSAT
1 25396U 98043C   02362.87342085 -.00000043  00000-0  00000+0 0  8085
2 25396  98.6341  75.9693 0001460 281.8699  78.2319 14.23491757232179
TECHSAT 1B
1 25397U 98043D   02359.92192475 +.00000240 +00000-0 +12596-3 0 00946
2 25397 098.6302 072.0274 0000670 353.2761 006.8406 14.22945710231722
ASTRA 2A
1 25462U 98050A   02354.00000000  .00000173  00000-0  00000+0 0  5261
2 25462   0.0385 308.7109 0004824 280.8620 247.0673  1.00272094 15830
EUTELSAT W2
1 25491U 98056A   02359.83938433  .00000115  00000-0  00000+0 0  5520
2 25491   0.0126 249.7749 0003903  24.4382 138.1182  1.00272597 15500
HOT BIRD 5
1 25495U 98057A   02363.91271007  .00000164  00000-0  00000+0 0  4866
2 25495   0.0427 155.6456 0003909 128.1244 176.0723  1.00268942 15515
SEDSAT 1
1 25509U 98061B   02364.50474284  .00002056  00000-0  39800-3 0  7459
2 25509  31.4285  75.8552 0359265 225.7591 131.3005 14.27332458218158
PAN SAT
1 25520U 98064B   02363.66126182  .00004185  00000-0  21664-3 0  6220
2 25520  28.4613 202.8737 0006053 159.6438 200.4334 15.13610350229867
ISS (ZARYA)
1 25544U 98067A   02364.53034071  .00018255  00000-0  24217-3 0  5275
2 25544  51.6351 147.4029 0004273 336.3539 108.0297 15.58299134234731
ORSTED
1 25635U 99008B   02363.55582918  .00000969  00000-0  25227-3 0  7931
2 25635  96.4459 357.0184 0146296 130.5522 230.8526 14.44750875202571
SUNSAT
1 25636U 99008C   02362.22282148  .00000560  00000-0  15399-3 0  6527
2 25636  96.4495 354.7701 0149959 140.6676 220.5526 14.42907914202260
UOSAT 12
1 25693U 99021A   02364.49187150  .00000532  00000-0  96154-4 0  5676
2 25693  64.5578 164.0494 0015539 316.4390  43.5452 14.76326317198864
FENGYUN 1C
1 25730U 99025A   02363.90681067  .00000027  00000-0  38080-4 0  7296
2 25730  98.6377  25.2047 0015068 144.2367 215.9817 14.11727559187489
ASTRA 1H
1 25785U 99033A   02354.00000000  .00000143  00000-0  10000-3 0  3665
2 25785   0.0122 319.8851 0002995  65.1991  82.5348  1.00273184 12891
TERRA
1 25994U 99068A   02364.32143446  .00000710  00000-0  16756-3 0  5490
2 25994  98.2058  76.2992 0000805 112.1140 248.0145 14.57152642161358
JAWSAT
1 26061U 00004A   02364.19680779  .00001121  00000-0  38922-3 0  7283
2 26061 100.2134  46.9003 0035594  62.6288 297.8503 14.37764975153295
OPAL
1 26063U 00004C   02363.67328419  .00000373  00000-0  14908-3 0  6855
2 26063 100.2190  44.0001 0037422  69.6971 290.8220 14.35459369153086
ASUSAT
1 26065U 00004E   02364.18870556  .00000400  00000-0  15826-3 0  6961
2 26065 100.2176  44.7471 0037842  70.2265 290.2987 14.35485207153152
GOES 11
1 26352U 00022A   02363.16770433 -.00000035  00000-0  10000-3 0  9507
2 26352   0.0100  26.5896 0004822 243.3234 136.1970  1.00259941  9720
EUTELSAT W4
1 26369U 00028A   02359.81848933  .00000167  00000-0  00000+0 0  3312
2 26369   0.0244 337.3956 0009168 318.5766 128.8640  1.00272641  9500
FENGYUN 2B
1 26382U 00032A   02363.64018957 -.00000321  00000-0  00000+0 0  7578
2 26382   0.6965 287.0576 0000112 187.4220 318.4714  1.00273336  9206
EUTELSAT W1
1 26487U 00052A   02362.90356483  .00000077  00000-0  10000-3 0  3335
2 26487   0.0052 134.7602 0003428 122.7418 174.9300  1.00271995  8502
ASTRA 2B
1 26494U 00054A   02354.00000000  .00000173  00000-0  00000+0 0  2496
2 26494   0.0178 354.5658 0005000 302.8402 179.1852  1.00276704  8315
NOAA 16
1 26536U 00055A   02363.48717637  .00000525  00000-0  31142-3 0  1436
2 26536  98.8946 307.1664 0011471  89.9039 270.3475 14.11873196116947
SAUDISAT 1A
1 26545U 00057A   02362.27448385  .00001741  00000-0  24948-3 0  3906
2 26545  64.5560 192.6295 0055169 246.9295 112.5988 14.78814951121485
UNISAT
1 26547U 00057C   02363.02971145  .00002811  00000-0  38207-3 0  4090
2 26547  64.5556 192.7315 0062273 249.3473 110.0945 14.79480926121562
TIUNGSAT 1
1 26548U 00057D   02363.52495820  .00002189  00000-0  29431-3 0  3947
2 26548  64.5549 182.2384 0048615 245.0164 114.5885 14.81063739121800
SAUDISAT 1B
1 26549U 00057E   02364.57397740  .00001584  00000-0  23356-3 0  6532
2 26549  64.5520 189.4223 0059447 247.1214 112.3583 14.77767262121757
AMSAT OSCAR 40
1 26609U 00072B   02363.51138608  .00000004  00000-0  10000-3 0  2999
2 26609   7.8703  73.6119 7931814 127.4932 332.8254  1.25597485  9943
GOES 12
1 26871U 01031A   02363.31932628 -.00000079  00000-0  10000-3 0  7468
2 26871   0.4238  98.4660 0001774  76.7013 292.4561  1.00262133  5326
STARSHINE 3
1 26929U 01043A   02364.57490919  .00330517  49462-4  77678-3 0  6202
2 26929  67.0371 131.3797 0004322 309.4730  50.6067 15.96665879 70869
PCSAT
1 26931U 01043C   02364.20603200  .00000416  00000-0  19661-3 0  3640
2 26931  67.0486  25.2654 0005450 254.9695 105.0798 14.29084672 65152
SAPPHIRE
1 26932U 01043D   02364.54039951  .00000295  00000-0  14836-3 0  3592
2 26932  67.0572  24.1232 0006768 239.9435 120.0994 14.29273034 65222
ENVISAT
1 27386U 02009A   02364.52512200  .00000393  00000-0  16210-3 0  7984
2 27386  98.5513  68.7932 0000911  99.1134 261.0152 14.32248336 43585
IDEFIX/ARIANE 42P
1 27422U 02021B   02363.87169920  .00000558  00000-0  24302-3 0  1969
2 27422  98.7031  78.2889 0011831 299.9881  60.0122 14.27941304 34226
NOAA 17
1 27453U 02032A   02363.87929293  .00000538  00000-0  25724-3 0  2498
2 27453  98.7662  70.3380 0012218 140.4234 219.7837 14.23261280 26750
HOT BIRD 6
1 27499U 02038A   02351.86791068  .00000112  00000-0  10000-3 0   630
2 27499   0.0109 318.8794 0005346 321.1542 131.7250  1.00272691  1209
RUBIN-2
1 27605U 02058A   02364.21613464  .00001252  00000-0  22177-3 0   169
2 27605  64.5598 350.1354 0031628 132.0677 228.3118 14.71348473  1408
